| time (UTC) | temp F | wind direction | speed MPH | gust MPH | rain 1hr in | rain 24hr in | rain mn in | humidity % | barometer mb |
| 20260831221536 | 58 | 200 | 3.0 | 7.0 | 0.00 | 0.25 | 0.00 | 90 | 1011.6 |
| 20260831220030 | 58 | 245 | 2.0 | 7.0 | 0.00 | 0.25 | 0.00 | 90 | 1011.4 |
| 20260831214528 | 59 | 246 | 2.0 | 10.0 | 0.00 | 0.25 | 0.25 | 90 | 1011.5 |
| 20260831213026 | 59 | 213 | 3.0 | 10.0 | 0.00 | 0.25 | 0.25 | 90 | 1011.2 |
| 20260831211527 | 59 | 223 | 2.0 | 10.0 | 0.00 | 0.25 | 0.25 | 91 | 1011.1 |
| 20260831210026 | 59 | 209 | 3.0 | 8.0 | 0.00 | 0.25 | 0.25 | 91 | 1011.1 |
| 20260831204525 | 59 | 202 | 2.0 | 5.0 | 0.00 | 0.25 | 0.25 | 91 | 1011.0 |
| 20260831203024 | 59 | 213 | 2.0 | 6.0 | 0.00 | 0.25 | 0.25 | 90 | 1010.8 |
| 20260831201526 | 59 | 248 | 3.0 | 7.0 | 0.01 | 0.25 | 0.25 | 90 | 1010.8 |
| 20260831200024 | 59 | 209 | 4.0 | 9.0 | 0.08 | 0.25 | 0.25 | 89 | 1010.6 |
| 20260831194524 | 59 | 244 | 3.0 | 9.0 | 0.17 | 0.25 | 0.25 | 89 | 1010.5 |
| 20260831193032 | 60 | 224 | 1.0 | 5.0 | 0.17 | 0.25 | 0.25 | 87 | 1010.3 |
| 20260831191522 | 60 | 238 | 3.0 | 11.0 | 0.16 | 0.24 | 0.24 | 84 | 1010.3 |
| 20260831190121 | 63 | 235 | 8.0 | 21.0 | 0.09 | 0.17 | 0.17 | 78 | 1011.1 |
| 20260831184546 | 63 | 252 | 1.0 | 8.0 | 0.00 | 0.08 | 0.08 | 78 | 1010.0 |
| 20260831183054 | 63 | 266 | 0.0 | 8.0 | 0.00 | 0.08 | 0.08 | 77 | 1009.6 |
| 20260831181548 | 64 | 297 | 3.0 | 6.0 | 0.00 | 0.08 | 0.08 | 75 | 1009.4 |
| 20260831180058 | 65 | 300 | 6.0 | 13.0 | 0.00 | 0.08 | 0.08 | 70 | 1009.5 |
| 20260831174550 | 67 | 268 | 10.0 | 22.0 | 0.00 | 0.08 | 0.08 | 62 | 1009.8 |
| 20260831173043 | 69 | 300 | 7.0 | 14.0 | 0.00 | 0.08 | 0.08 | 56 | 1009.5 |
| 20260831171543 | 70 | 284 | 6.0 | 14.0 | 0.00 | 0.08 | 0.08 | 54 | 1009.1 |
| 20260831170044 | 73 | 267 | 13.0 | 23.0 | 0.00 | 0.08 | 0.08 | 53 | 1009.1 |
| 20260831164547 | 75 | 221 | 10.0 | 23.0 | 0.00 | 0.08 | 0.08 | 49 | 1008.8 |
| 20260831163043 | 75 | 213 | 10.0 | 18.0 | 0.00 | 0.08 | 0.08 | 47 | 1008.5 |
| 20260831161549 | 75 | 245 | 8.0 | 21.0 | 0.00 | 0.08 | 0.08 | 47 | 1008.3 |
| 20260831160039 | 75 | 246 | 4.0 | 19.0 | 0.00 | 0.08 | 0.08 | 49 | 1008.3 |
| 20260831154539 | 76 | 269 | 5.0 | 17.0 | 0.00 | 0.08 | 0.08 | 49 | 1008.1 |
| 20260831153037 | 77 | 244 | 6.0 | 20.0 | 0.00 | 0.08 | 0.08 | 47 | 1008.2 |
| 20260831151536 | 77 | 237 | 6.0 | 19.0 | 0.00 | 0.08 | 0.08 | 49 | 1008.2 |
| 20260831150034 | 76 | 229 | 7.0 | 16.0 | 0.00 | 0.08 | 0.08 | 50 | 1008.2 |
| 20260831144533 | 76 | 265 | 7.0 | 20.0 | 0.00 | 0.08 | 0.08 | 50 | 1008.3 |
| 20260831143032 | 77 | 170 | 12.0 | 21.0 | 0.00 | 0.08 | 0.08 | 50 | 1008.4 |
| 20260831141535 | 77 | 193 | 12.0 | 23.0 | 0.00 | 0.08 | 0.08 | 48 | 1008.4 |
| 20260831140029 | 76 | 315 | 8.0 | 18.0 | 0.00 | 0.08 | 0.08 | 52 | 1008.5 |
| 20260831134527 | 76 | 178 | 8.0 | 18.0 | 0.00 | 0.08 | 0.08 | 55 | 1008.7 |
| 20260831133029 | 76 | 246 | 4.0 | 11.0 | 0.00 | 0.08 | 0.08 | 57 | 1008.7 |
| 20260831131522 | 75 | 252 | 7.0 | 16.0 | 0.00 | 0.08 | 0.08 | 57 | 1008.8 |
| 20260831130024 | 75 | 188 | 9.0 | 22.0 | 0.00 | 0.08 | 0.08 | 60 | 1008.9 |
| 20260831124523 | 75 | 217 | 6.0 | 18.0 | 0.00 | 0.08 | 0.08 | 61 | 1009.0 |
| 20260831123018 | 75 | 178 | 4.0 | 23.0 | 0.00 | 0.08 | 0.08 | 64 | 1009.1 |
| 20260831121514 | 73 | 213 | 9.0 | 17.0 | 0.00 | 0.08 | 0.08 | 65 | 1009.1 |
| 20260831120014 | 73 | 269 | 5.0 | 18.0 | 0.00 | 0.08 | 0.08 | 68 | 1009.2 |
| 20260831114512 | 73 | 252 | 5.0 | 17.0 | 0.00 | 0.08 | 0.08 | 66 | 1009.1 |
| 20260831113011 | 73 | 217 | 11.0 | 22.0 | 0.00 | 0.08 | 0.08 | 66 | 1009.0 |
| 20260831111509 | 73 | 215 | 10.0 | 21.0 | 0.00 | 0.08 | 0.08 | 67 | 1009.1 |
| 20260831110009 | 72 | 198 | 5.0 | 17.0 | 0.00 | 0.08 | 0.08 | 69 | 1009.2 |
| 20260831104503 | 71 | 201 | 6.0 | 15.0 | 0.00 | 0.08 | 0.08 | 71 | 1009.3 |
| 20260831103001 | 71 | 219 | 5.0 | 15.0 | 0.00 | 0.08 | 0.08 | 73 | 1009.3 |
| 20260831101600 | 70 | 214 | 8.0 | 15.0 | 0.00 | 0.08 | 0.08 | 74 | 1009.4 |
| 20260831100116 | 69 | 223 | 4.0 | 15.0 | 0.00 | 0.08 | 0.08 | 78 | 1009.3 |
| 20260831094555 | 69 | 184 | 9.0 | 16.0 | 0.00 | 0.08 | 0.08 | 79 | 1009.5 |
| 20260831093053 | 68 | 186 | 4.0 | 9.0 | 0.00 | 0.08 | 0.08 | 83 | 1009.6 |
| 20260831091551 | 67 | 248 | 3.0 | 10.0 | 0.00 | 0.08 | 0.08 | 90 | 1009.5 |
| 20260831090047 | 65 | 197 | 3.0 | 11.0 | 0.00 | 0.08 | 0.08 | 92 | 1009.7 |
| 20260831084552 | 63 | 250 | 1.0 | 9.0 | 0.01 | 0.08 | 0.08 | 93 | 1009.6 |
| 20260831083047 | 62 | 228 | 4.0 | 7.0 | 0.05 | 0.08 | 0.08 | 93 | 1009.6 |
| 20260831081546 | 61 | 231 | 1.0 | 5.0 | 0.05 | 0.08 | 0.08 | 92 | 1009.6 |
| 20260831080054 | 61 | 246 | 1.0 | 7.0 | 0.06 | 0.08 | 0.08 | 92 | 1010.0 |
| 20260831074542 | 60 | 260 | 1.0 | 7.0 | 0.06 | 0.07 | 0.07 | 91 | 1009.9 |
| 20260831073041 | 60 | 252 | 2.0 | 8.0 | 0.02 | 0.03 | 0.03 | 90 | 1009.7 |
| 20260831071540 | 60 | 248 | 3.0 | 7.0 | 0.02 | 0.02 | 0.02 | 89 | 1009.5 |
| 20260831070039 | 60 | 252 | 4.0 | 9.0 | 0.02 | 0.02 | 0.02 | 88 | 1009.5 |
| 20260831064537 | 60 | 240 | 3.0 | 8.0 | 0.01 | 0.01 | 0.01 | 86 | 1009.4 |
| 20260831063038 | 60 | 182 | 4.0 | 9.0 | 0.00 | 0.00 | 0.00 | 84 | 1009.2 |
| 20260831061538 | 61 | 190 | 6.0 | 12.0 | 0.00 | 0.00 | 0.00 | 82 | 1009.3 |
| 20260831060037 | 60 | 194 | 7.0 | 10.0 | 0.00 | 0.00 | 0.00 | 80 | 1009.1 |
| 20260831054536 | 59 | 229 | 3.0 | 5.0 | 0.00 | 0.00 | 0.00 | 83 | 1009.1 |
| 20260831053036 | 58 | 217 | 0.0 | 3.0 | 0.00 | 0.00 | 0.00 | 86 | 1008.9 |
| 20260831051540 | 57 | 217 | 0.0 | 1.0 | 0.00 | 0.00 | 0.00 | 87 | 1008.9 |
| 20260831050034 | 57 | 217 | 0.0 | 1.0 | 0.00 | 0.00 | 0.00 | 87 | 1008.9 |
| 20260831044534 | 57 | 217 | 0.0 | 1.0 | 0.00 | 0.00 | 0.00 | 85 | 1009.0 |
| 20260831043031 | 57 | 217 | 0.0 | 1.0 | 0.00 | 0.00 | 0.00 | 85 | 1009.1 |
| 20260831041544 | 58 | 217 | 0.0 | 2.0 | 0.00 | 0.00 | 0.00 | 86 | 1008.9 |
| 20260831040030 | 57 | 217 | 0.0 | 0.0 | 0.00 | 0.00 | 0.00 | 86 | 1008.8 |
| 20260831034527 | 57 | 217 | 0.0 | 2.0 | 0.00 | 0.01 | 0.00 | 86 | 1008.9 |
| 20260831033027 | 57 | 217 | 0.0 | 0.0 | 0.00 | 0.01 | 0.00 | 85 | 1009.4 |
| 20260831031526 | 57 | 217 | 1.0 | 2.0 | 0.00 | 0.01 | 0.00 | 83 | 1009.4 |
| 20260831030019 | 58 | 217 | 0.0 | 0.0 | 0.00 | 0.01 | 0.00 | 81 | 1009.3 |
| 20260831024519 | 59 | 217 | 0.0 | 1.0 | 0.00 | 0.01 | 0.00 | 81 | 1009.5 |
| 20260831023016 | 59 | 217 | 0.0 | 3.0 | 0.00 | 0.01 | 0.00 | 81 | 1009.6 |
| 20260831021526 | 59 | 217 | 0.0 | 2.0 | 0.00 | 0.01 | 0.00 | 81 | 1009.6 |
| 20260831020111 | 60 | 217 | 0.0 | 0.0 | 0.00 | 0.01 | 0.00 | 79 | 1009.8 |
| 20260831014513 | 60 | 217 | 1.0 | 4.0 | 0.00 | 0.01 | 0.00 | 79 | 1009.9 |
| 20260831013009 | 60 | 217 | 0.0 | 2.0 | 0.00 | 0.01 | 0.00 | 79 | 1010.1 |
| 20260831011512 | 61 | 217 | 1.0 | 2.0 | 0.00 | 0.01 | 0.00 | 78 | 1010.3 |
| 20260831010005 | 62 | 217 | 0.0 | 2.0 | 0.00 | 0.01 | 0.00 | 76 | 1010.4 |
| 20260831004559 | 62 | 217 | 0.0 | 3.0 | 0.00 | 0.01 | 0.00 | 74 | 1010.5 |
| 20260831003058 | 63 | 217 | 2.0 | 5.0 | 0.00 | 0.01 | 0.00 | 74 | 1010.6 |
| 20260831001604 | 63 | 217 | 2.0 | 5.0 | 0.00 | 0.01 | 0.00 | 74 | 1010.7 |
| 20260831000056 | 63 | 207 | 3.0 | 6.0 | 0.00 | 0.01 | 0.00 | 73 | 1010.7 |
| 20260830234553 | 63 | 207 | 3.0 | 6.0 | 0.00 | 0.01 | 0.00 | 73 | 1010.8 |
| 20260830233059 | 64 | 244 | 2.0 | 4.0 | 0.00 | 0.01 | 0.00 | 73 | 1010.6 |
| 20260830231600 | 64 | 225 | 4.0 | 7.0 | 0.00 | 0.01 | 0.00 | 73 | 1010.7 |
| 20260830230054 | 64 | 225 | 2.0 | 6.0 | 0.00 | 0.01 | 0.00 | 73 | 1010.7 |
| 20260830224609 | 64 | 244 | 2.0 | 5.0 | 0.00 | 0.01 | 0.00 | 73 | 1010.6 |
| 20260830223054 | 63 | 284 | 1.0 | 3.0 | 0.00 | 0.01 | 0.00 | 74 | 1010.6 |